Date String (YYYY-MM-DD hh:mm:ss) UTC,Instrument flags,Ambient pressure (hPa),Sample flow (lpm),Bypass flow (lpm),Sample temperature (°C),Ambient temperature (°C),ASC tube jacket temperature (°C),LED temperature (°C),Box temperature (°C),Sample RH (%),Span deviation,Mass concentration (μg/m³),Mass concentration (μg/m³),Mass concentration (μg/m³)
DateTimeUTC,F1_M11,P_M11,Q1_M11,Q2_M11,T1_M11,T2_M11,T3_M11,T4_M11,T5_M11,U1_M11,ZSPAN_M11,X2_M11,X0_M11,X1_M11
2021-12-05 20:00:00,,0818.0,5.01,0.00,26.1,25.3,00.0,35.0,27.9,06.8,0000.0,0001.01,0003.30,0000.54
2021-12-05 20:01:00,,0818.1,5.00,0.00,26.1,25.2,00.0,35.0,27.9,06.8,0000.0,0000.99,0002.99,0000.54
2021-12-05 20:02:00,,0817.9,5.00,0.00,26.1,25.2,00.0,35.0,27.9,06.9,0000.0,0001.00,0002.99,0000.54
2021-12-05 20:03:00,,0818.0,5.01,0.00,26.1,25.2,00.0,35.1,27.9,06.7,0000.0,0001.02,0003.04,0000.55
2021-12-05 20:04:00,,0817.9,5.00,0.00,26.2,25.3,00.0,35.1,27.9,06.6,0000.0,0001.02,0003.11,0000.55
2021-12-05 20:05:00,,0817.8,4.99,0.00,26.2,25.3,00.0,35.1,27.9,06.4,0000.0,0001.01,0003.01,0000.54
2021-12-05 20:06:00,,0817.9,5.00,0.00,26.2,25.3,00.0,35.1,27.9,06.4,0000.0,0001.09,0003.17,0000.54
2021-12-05 20:07:00,,0817.9,5.01,0.00,26.2,25.3,00.0,35.1,28.0,06.5,0000.0,0001.14,0003.27,0000.54
2021-12-05 20:08:00,,0818.0,5.00,0.00,26.2,25.3,00.0,35.1,28.0,06.5,0000.0,0001.14,0002.80,0000.54
2021-12-05 20:09:00,,0818.0,5.01,0.00,26.2,25.3,00.0,35.1,28.0,06.6,0000.0,0001.11,0003.09,0000.54
2021-12-05 20:10:00,,0818.0,4.98,0.00,26.2,25.3,00.0,35.1,27.9,06.5,0000.0,0001.11,0003.51,0000.54
2021-12-05 20:11:00,,0817.9,5.02,0.00,26.2,25.3,00.0,35.2,28.0,06.4,0000.0,0001.09,0004.45,0000.54
2021-12-05 20:12:00,,0817.9,4.99,0.00,26.2,25.3,00.0,35.2,28.0,06.4,0000.0,0001.14,0004.91,0000.55
2021-12-05 20:13:00,,0817.7,5.00,0.00,26.2,25.4,00.0,35.2,28.0,06.6,0000.0,0001.16,0005.66,0000.55
2021-12-05 20:14:00,,0818.0,4.99,0.00,26.2,25.4,00.0,35.2,28.0,06.3,0000.0,0001.20,0006.13,0000.55
2021-12-05 20:15:00,,0817.9,5.01,0.00,26.2,25.4,00.0,35.2,28.0,06.2,0000.0,0001.21,0006.13,0000.55
2021-12-05 20:16:00,,0817.8,4.99,0.00,26.3,25.4,00.0,35.2,28.0,06.2,0000.0,0001.22,0006.05,0000.55
2021-12-05 20:17:00,,0817.9,5.00,0.00,26.3,25.4,00.0,35.2,28.1,06.4,0000.0,0001.15,0005.84,0000.55
2021-12-05 20:18:00,,0817.9,5.00,0.00,26.3,25.5,00.0,35.2,28.1,06.1,0000.0,0001.09,0006.04,0000.55
2021-12-05 20:19:00,,0817.9,4.99,0.00,26.3,25.5,00.0,35.3,28.1,05.9,0000.0,0001.10,0006.67,0000.54
2021-12-05 20:20:00,,0817.7,5.01,0.00,26.3,25.5,00.0,35.3,28.1,05.9,0000.0,0001.15,0007.22,0000.54
2021-12-05 20:21:00,,0817.9,4.98,0.00,26.3,25.5,00.0,35.3,28.1,05.3,0000.0,0001.19,0007.88,0000.55
2021-12-05 20:22:00,,0818.0,5.01,0.00,26.3,25.6,00.0,35.3,28.1,05.1,0000.0,0001.25,0007.54,0000.54
2021-12-05 20:23:00,,0817.9,4.98,0.00,26.4,25.5,00.0,35.3,28.2,05.1,0000.0,0001.27,0007.73,0000.54
2021-12-05 20:24:00,,0817.8,5.00,0.00,26.4,25.5,00.0,35.3,28.2,05.0,0000.0,0001.33,0007.66,0000.52
2021-12-05 20:25:00,,0817.8,5.01,0.00,26.4,25.6,00.0,35.3,28.2,04.7,0000.0,0001.28,0008.03,0000.51
2021-12-05 20:26:00,,0817.8,5.00,0.00,26.4,25.6,00.0,35.3,28.2,04.8,0000.0,0001.33,0008.71,0000.50
2021-12-05 20:27:00,,0817.9,5.00,0.00,26.4,25.6,00.0,35.4,28.2,04.9,0000.0,0001.43,0008.98,0000.50
2021-12-05 20:28:00,,0817.9,4.99,0.00,26.4,25.6,00.0,35.4,28.2,04.9,0000.0,0001.51,0009.24,0000.51
2021-12-05 20:29:00,,0817.9,5.00,0.00,26.4,25.7,00.0,35.4,28.2,04.6,0000.0,0001.59,0009.51,0000.50
2021-12-05 20:30:00,,0818.0,4.99,0.00,26.4,25.7,00.0,35.4,28.2,04.5,0000.0,0001.68,0009.53,0000.50
2021-12-05 20:31:00,,0818.0,5.01,0.00,26.4,25.7,00.0,35.4,28.2,04.5,0000.0,0001.70,0008.91,0000.51
2021-12-05 20:32:00,,0818.0,5.00,0.00,26.5,25.7,00.0,35.4,28.2,04.4,0000.0,0001.70,0008.39,0000.51
2021-12-05 20:33:00,,0817.9,5.01,0.00,26.5,25.7,00.0,35.4,28.3,04.5,0000.0,0001.73,0009.56,0000.52
2021-12-05 20:34:00,,0818.0,4.99,0.00,26.5,25.7,00.0,35.4,28.3,04.4,0000.0,0001.79,0010.26,0000.52
2021-12-05 20:35:00,,0818.0,5.00,0.00,26.5,25.7,00.0,35.4,28.3,04.4,0000.0,0001.79,0010.33,0000.52
2021-12-05 20:36:00,,0818.1,5.01,0.00,26.5,25.7,00.0,35.5,28.3,04.5,0000.0,0001.85,0009.79,0000.52
2021-12-05 20:37:00,,0818.2,5.01,0.00,26.5,25.7,00.0,35.5,28.3,04.5,0000.0,0001.86,0009.50,0000.52
2021-12-05 20:38:00,,0818.2,5.00,0.00,26.5,25.7,00.0,35.5,28.3,04.5,0000.0,0001.81,0009.56,0000.51
2021-12-05 20:39:00,,0818.3,5.01,0.00,26.5,25.8,00.0,35.5,28.3,04.4,0000.0,0001.77,0009.82,0000.51
2021-12-05 20:40:00,,0818.3,5.00,0.00,26.6,25.8,00.0,35.5,28.4,04.4,0000.0,0001.68,0009.73,0000.50
2021-12-05 20:41:00,,0818.3,4.99,0.00,26.6,25.8,00.0,35.5,28.4,04.4,0000.0,0001.64,0009.52,0000.50
2021-12-05 20:42:00,,0818.1,5.00,0.00,26.6,25.9,00.0,35.5,28.4,04.3,0000.0,0001.67,0009.59,0000.50
2021-12-05 20:43:00,,0818.0,5.00,0.00,26.6,25.9,00.0,35.5,28.4,04.3,0000.0,0001.66,0009.30,0000.49
2021-12-05 20:44:00,,0818.2,4.99,0.00,26.6,25.9,00.0,35.6,28.4,04.3,0000.0,0001.64,0008.14,0000.48
2021-12-05 20:45:00,,0818.4,5.01,0.00,26.6,25.9,00.0,35.6,28.4,04.4,0000.0,0001.54,0006.68,0000.47
2021-12-05 20:46:00,,0818.4,4.99,0.00,26.6,25.8,00.0,35.6,28.4,04.4,0000.0,0001.49,0006.96,0000.47
2021-12-05 20:47:00,,0818.4,5.00,0.00,26.7,25.8,00.0,35.6,28.4,04.4,0000.0,0001.44,0007.38,0000.47
2021-12-05 20:48:00,,0818.2,4.99,0.00,26.7,25.8,00.0,35.6,28.4,04.4,0000.0,0001.36,0006.75,0000.47
2021-12-05 20:49:00,,0818.3,5.01,0.00,26.7,25.9,00.0,35.6,28.5,04.3,0000.0,0001.27,0007.79,0000.46
2021-12-05 20:50:00,,0818.2,4.98,0.00,26.7,25.9,00.0,35.6,28.5,04.3,0000.0,0001.21,0007.99,0000.45
2021-12-05 20:51:00,,0818.3,5.02,0.00,26.7,25.9,00.0,35.6,28.5,04.4,0000.0,0001.18,0007.72,0000.45
2021-12-05 20:52:00,,0818.4,4.98,0.00,26.7,25.9,00.0,35.6,28.5,04.4,0000.0,0001.09,0007.69,0000.44
2021-12-05 20:53:00,,0818.4,5.00,0.00,26.7,26.0,00.0,35.7,28.5,04.4,0000.0,0001.01,0007.87,0000.43
2021-12-05 20:54:00,,0818.3,5.00,0.00,26.7,26.0,00.0,35.7,28.5,04.4,0000.0,0000.98,0007.80,0000.42
2021-12-05 20:55:00,,0818.3,5.01,0.00,26.7,26.0,00.0,35.7,28.5,04.3,0000.0,0000.94,0007.68,0000.41
2021-12-05 20:56:00,,0818.3,5.01,0.00,26.7,26.0,00.0,35.7,28.5,04.4,0000.0,0000.90,0007.64,0000.40
2021-12-05 20:57:00,,0818.2,4.99,0.00,26.8,26.0,00.0,35.7,28.6,04.4,0000.0,0000.86,0007.00,0000.39
2021-12-05 20:58:00,,0818.4,5.02,0.00,26.8,26.1,00.0,35.7,28.6,04.4,0000.0,0000.87,0006.50,0000.40
2021-12-05 20:59:00,,0818.4,5.00,0.00,26.8,26.1,00.0,35.8,28.6,04.4,0000.0,0000.94,0006.54,0000.40
